TimeCST,TemperatureF,Dew PointF,Humidity,Sea Level PressureIn,VisibilityMPH,Wind Direction,Wind SpeedMPH,Gust SpeedMPH,PrecipitationIn,Events,Conditions,WindDirDegrees,DateUTC
12:53 AM,25.0,15.1,66,30.13,10.0,SSE,3.5,-,N/A,,Clear,150,2012-12-12 06:53:00
1:53 AM,28.0,17.1,63,30.13,10.0,South,4.6,-,N/A,,Clear,170,2012-12-12 07:53:00
2:53 AM,27.0,15.1,61,30.14,10.0,South,3.5,-,N/A,,Clear,170,2012-12-12 08:53:00
3:53 AM,25.0,15.1,66,30.13,10.0,South,3.5,-,N/A,,Clear,170,2012-12-12 09:53:00
4:53 AM,26.1,15.1,63,30.14,10.0,South,3.5,-,N/A,,Clear,170,2012-12-12 10:53:00
5:53 AM,23.0,15.1,72,30.14,10.0,South,5.8,-,N/A,,Clear,170,2012-12-12 11:53:00
6:53 AM,23.0,15.1,72,30.15,10.0,South,6.9,-,N/A,,Clear,170,2012-12-12 12:53:00
7:53 AM,23.0,16.0,74,30.16,10.0,South,6.9,-,N/A,,Clear,180,2012-12-12 13:53:00
8:53 AM,33.1,19.9,59,30.18,10.0,SSW,10.4,-,N/A,,Clear,200,2012-12-12 14:53:00
9:53 AM,37.9,19.9,48,30.20,10.0,SSW,11.5,-,N/A,,Clear,200,2012-12-12 15:53:00
11:53 AM,46.9,16.0,29,30.16,10.0,SSW,20.7,25.3,N/A,,Clear,200,2012-12-12 17:53:00
12:53 PM,50.0,14.0,24,30.13,10.0,South,18.4,-,N/A,,Clear,190,2012-12-12 18:53:00
1:53 PM,51.1,12.0,21,30.11,10.0,SSW,19.6,25.3,N/A,,Clear,200,2012-12-12 19:53:00
2:53 PM,51.1,12.0,21,30.10,10.0,South,17.3,-,N/A,,Clear,180,2012-12-12 20:53:00
3:53 PM,48.9,12.0,23,30.11,10.0,South,18.4,24.2,N/A,,Clear,180,2012-12-12 21:53:00
4:53 PM,46.0,10.9,24,30.09,10.0,South,18.4,24.2,N/A,,Clear,180,2012-12-12 22:53:00
5:53 PM,41.0,10.9,29,30.10,10.0,South,10.4,20.7,N/A,,Clear,180,2012-12-12 23:53:00
6:53 PM,41.0,10.9,29,30.10,10.0,South,12.7,-,N/A,,Clear,180,2012-12-13 00:53:00
7:53 PM,41.0,12.0,31,30.10,10.0,South,17.3,-,N/A,,Clear,180,2012-12-13 01:53:00
8:53 PM,39.9,12.9,33,30.14,10.0,South,10.4,-,N/A,,Clear,190,2012-12-13 02:53:00
9:53 PM,39.9,12.9,33,30.14,10.0,South,12.7,-,N/A,,Clear,190,2012-12-13 03:53:00
10:53 PM,39.9,12.9,33,30.13,10.0,South,18.4,25.3,N/A,,Clear,190,2012-12-13 04:53:00
11:53 PM,39.0,12.0,33,30.13,10.0,South,12.7,-,N/A,,Clear,190,2012-12-13 05:53:00